[[{"header":{"parameterUnit":"m.s-1","parameterCategory":1,"la1":30.2991,"la2":30.254,"lo1":-89.0895,"lo2":-89.0444,"dy":0.0017,"dx":0.0017,"nx":28,"ny":28,"refTime":"2024-08-01T09:00:00:Z","depth":0,"parameterNumber":2,"parameterNumberName":"U-component_of_WINDS"},"data":[0,0,0,0,0,0,0,0,0,0,0,0,0,0,0,0,0,0,0,0,0,0,0,0,0,0,0,0,0,0,0,0,0,0,0,0,0,0,0,0,0,0,0,0,0,0,0,0,0,0,0,0,0,0,0,0,0,0,1.4424,1.4425,0,1.4492,1.4493,1.4494,1.4499,1.4499,1.4498,1.4497,1.4571,1.4573,1.4576,0,0,0,0,0,0,0,0,0,0,0,0,0,1.4304,1.4306,1.4424,1.4425,1.4426,1.4492,1.4493,1.4494,1.45,1.4499,1.4498,1.4497,1.457,1.4573,1.4576,0,0,0,0,0,0,0,0,0,0,0,0,0,1.4363,1.4307,1.4424,1.4436,1.4438,1.4492,1.4493,1.4494,1.45,1.4499,1.4498,1.4496,1.4569,1.4573,1.4577,1.4623,0,0,1.4589,1.459,0,0,0,0,0,0,0,0,1.4359,1.4367,1.4434,1.4436,1.4438,1.4486,1.4478,1.4538,1.45,1.4476,1.4497,1.4496,1.4544,1.455,1.4565,1.4627,1.463,1.4589,1.4591,1.4593,1.4594,0,0,0,0,0,0,0,1.4355,1.4364,1.4451,1.4435,1.4437,1.444,1.4447,1.4489,1.4516,1.4478,1.4479,1.4487,1.4545,1.4561,1.4567,1.4631,1.4589,1.4592,1.4595,1.4596,1.4739,1.474,0,0,0,0,0,0,1.4348,1.4361,1.4449,1.4453,1.4395,1.4443,1.4451,1.4472,1.4515,1.4521,1.4488,1.4487,1.4555,1.4562,1.4569,1.463,1.4593,1.4597,1.4599,1.4737,1.4739,1.4741,0,0,0,0,0,0,1.4345,1.4356,1.4446,1.4407,1.4419,1.4447,1.4469,1.4474,1.449,1.4522,1.4527,1.4499,1.4554,1.4564,1.4611,1.4632,1.4599,1.4602,1.4736,1.4738,1.474,1.4749,0,0,0,0,0,0,1.4342,1.4355,1.4371,1.4407,1.4421,1.4484,1.4471,1.4476,1.4497,1.4496,1.4534,1.454,1.4554,1.4605,1.4614,1.4637,1.4605,1.4734,1.4737,1.4739,1.4747,1.4751,1.4755,0,0,0,0,0,1.4338,1.4371,1.4372,1.4383,1.4442,1.4485,1.4493,1.4508,1.4498,1.4516,1.4537,1.4539,1.4628,1.4609,1.462,1.4645,1.4733,1.4736,1.4739,1.4745,1.4751,1.4755,0,0,0,0,0,0,1.4338,1.4376,1.4378,1.4423,1.4451,1.4486,1.4509,1.4513,1.4545,1.4543,1.4561,1.457,1.4617,1.4635,1.4614,1.4694,1.468,1.4685,1.4681,1.4686,1.469,1.4685,1.4609,0,0,0,0,0,1.4343,1.4374,1.4406,1.4444,1.4457,1.4481,1.4501,1.451,1.454,1.4552,1.4576,1.4606,1.4642,1.4664,1.4698,1.475,1.476,1.4772,1.4776,1.4779,1.4784,1.4816,1.4823,1.4751,1.4751,1.4751,0,0,1.4354,1.4379,1.4397,1.4444,1.4467,1.4501,1.4491,1.4526,1.4552,1.4557,1.4604,1.4623,1.4658,1.4708,1.4731,1.4725,1.4806,1.4783,1.4785,1.4789,1.482,1.4827,1.4833,1.4753,1.4753,1.4752,0,0,1.4393,1.4413,1.4448,1.4471,1.4506,1.4522,1.453,1.4566,1.4578,1.4625,1.463,1.4662,1.4722,1.4748,1.4768,1.482,1.4823,1.483,1.4852,1.4883,1.4888,1.4894,1.4915,1.4922,1.4835,1.4835,1.4835,0,1.4403,1.4452,1.4466,1.4502,1.4524,1.453,1.4567,1.4589,1.4633,1.465,1.4641,1.4718,1.4742,1.48,1.4813,1.4828,1.4841,1.4827,1.4886,1.4891,1.4897,1.4917,1.4925,1.4836,1.4836,1.4836,1.4836,0,1.4465,1.4499,1.4524,1.4566,1.4591,1.4627,1.4649,1.4672,1.468,1.4697,1.4747,1.4776,1.4817,1.4831,1.4839,1.4891,1.4887,1.4882,1.4868,1.4904,1.4924,1.4932,1.4837,1.4837,1.4836,1.4836,0,0,1.4505,1.4556,1.4565,1.4585,1.4625,1.4653,1.4691,1.4731,1.4752,1.4783,1.4817,1.4868,1.4865,1.4889,1.49,1.4927,1.497,1.492,1.4921,1.493,1.5033,1.5038,1.5047,1.4972,1.4973,1.4974,1.5031,0,1.455,1.4616,1.4631,1.4689,1.4723,1.4731,1.4765,1.4794,1.4812,1.4845,1.4865,1.4902,1.4893,1.4909,1.4935,1.4959,1.4991,1.4954,1.5007,1.5008,1.5,1.5057,1.5061,1.5114,1.5039,1.504,1.5041,0,1.461,1.4643,1.4705,1.4743,1.4757,1.4787,1.4827,1.4857,1.4892,1.4903,1.4931,1.494,1.4982,1.4965,1.5026,1.5001,1.5023,1.5038,1.5041,1.5048,1.5028,1.5068,1.5131,1.5139,1.5053,1.5052,1.5051,0,1.4637,1.4696,1.4741,1.4759,1.4803,1.4825,1.4844,1.4877,1.4902,1.4937,1.4953,1.4993,1.5015,1.5047,1.5067,1.5052,1.5128,1.5111,1.5141,1.5141,1.5158,1.5157,1.5228,1.5168,1.5168,1.5168,1.5168,0,1.4687,1.4725,1.4754,1.4783,1.4827,1.4844,1.4888,1.4908,1.4938,1.4973,1.4981,1.5013,1.5037,1.5073,1.5089,1.5139,1.5149,1.5161,1.5166,1.5162,1.5161,1.5178,1.5176,1.517,1.517,1.5169,1.5169,0,1.4724,1.4745,1.4796,1.4834,1.4845,1.4876,1.491,1.4939,1.4958,1.5001,1.5012,1.5042,1.5086,1.5109,1.5163,1.5174,1.5231,1.5232,1.5219,1.5222,1.5251,1.5249,1.5337,1.5351,1.528,1.5281,1.5281,0,1.4755,1.4785,1.4827,1.485,1.4871,1.4908,1.4933,1.4952,1.4978,1.5021,1.5046,1.509,1.5126,1.5196,1.5224,1.5266,1.527,1.5298,1.5276,1.5273,1.5274,1.5273,1.5278,1.5302,1.5303,1.5303,1.5304,0,1.481,1.4819,1.4854,1.4894,1.4924,1.4956,1.4989,1.5007,1.5033,1.5062,1.5106,1.5134,1.5191,1.5235,1.528,1.5303,1.5309,1.531,1.532,1.5318,1.531,1.5318,1.5232,1.5308,1.5308,1.5308,1.5307,1.5307,1.4847,1.4875,1.491,1.495,1.4976,1.5007,1.5037,1.506,1.5097,1.5144,1.5153,1.5201,1.5238,1.5299,1.5323,1.5363,1.5357,1.5371,1.5374,1.5378,1.5381,1.5302,1.5371,1.5371,1.5371,1.537,1.537,0,1.4905,1.4928,1.4964,1.501,1.5042,1.5043,1.508,1.5107,1.5149,1.5182,1.5218,1.5271,1.5315,1.5347,1.5392,1.5418,1.5422,1.543,1.5429,1.5435,1.5382,1.537,1.5426,1.5426,1.5426,1.5426,1.5426,1.5426,1.4938,1.4987,1.5001,1.5065,1.5088,1.5134,1.5156,1.5185,1.5212,1.5271,1.5307,1.5327,1.5361,1.541,1.5451,1.546,1.5477,1.5485,1.5494,1.5444,1.5438,1.5433,1.5422,1.5488,1.5488,1.5545,1.5546,1.5546]},{"header":{"parameterUnit":"m.s-1","parameterCategory":1,"la1":30.2991,"la2":30.254,"lo1":-89.0895,"lo2":-89.0444,"dy":0.0017,"dx":0.0017,"nx":28,"ny":28,"refTime":"2024-08-01T09:00:00:Z","depth":0,"parameterNumber":3,"parameterNumberName":"V-component_of_WINDS"},"data":[0,0,0,0,0,0,0,0,0,0,0,0,0,0,0,0,0,0,0,0,0,0,0,0,0,0,0,0,0,0,0,0,0,0,0,0,0,0,0,0,0,0,0,0,0,0,0,0,0,0,0,0,0,0,0,0,0,0,0.9785,0.9786,0,0.9899,0.99,0.9901,0.9876,0.9874,0.9872,0.987,0.9987,0.9991,0.9996,0,0,0,0,0,0,0,0,0,0,0,0,0,0.9541,0.9546,0.9784,0.9786,0.9787,0.9898,0.99,0.9902,0.9877,0.9874,0.9872,0.9869,0.9985,0.9991,0.9997,0,0,0,0,0,0,0,0,0,0,0,0,0,0.965,0.9548,0.9784,0.9788,0.979,0.9898,0.99,0.9902,0.9877,0.9874,0.9871,0.9868,0.9983,0.999,0.9998,1.0109,0,0,1.0021,1.0024,0,0,0,0,0,0,0,0,0.9644,0.9659,0.9786,0.9788,0.979,0.987,0.9857,0.9971,0.9878,0.9844,0.987,0.9866,0.995,0.996,0.9989,1.0114,1.0119,1.0022,1.0026,1.003,1.0032,0,0,0,0,0,0,0,0.9637,0.9654,0.983,0.9788,0.979,0.9783,0.9795,0.9879,0.9914,0.9847,0.9845,0.9859,0.9951,0.9982,0.9991,1.0121,1.0022,1.0028,1.0033,1.0036,1.0338,1.0341,0,0,0,0,0,0,0.9628,0.9648,0.9826,0.9833,0.9708,0.979,0.9804,0.9848,0.9913,0.992,0.9862,0.9857,0.997,0.9982,0.9995,1.0126,1.003,1.0037,1.0041,1.0335,1.0339,1.0342,0,0,0,0,0,0,0.9623,0.9644,0.9821,0.974,0.9762,0.9798,0.9847,0.9851,0.9882,0.9924,0.993,0.9887,0.9968,0.9985,1.008,1.013,1.004,1.0047,1.033,1.0336,1.0341,1.0391,0,0,0,0,0,0,0.9616,0.9642,0.9686,0.9741,0.9767,0.9905,0.9851,0.9856,0.9896,0.9891,0.9949,0.9956,0.9967,1.0068,1.0087,1.0139,1.0053,1.0326,1.0333,1.0339,1.0385,1.0397,1.0408,0,0,0,0,0,0.9607,0.9697,0.9688,0.971,0.9822,0.9908,0.9923,0.9933,0.99,0.9943,0.9969,0.9954,1.0122,1.0078,1.0099,1.0154,1.0323,1.0331,1.0338,1.038,1.0395,1.0407,0,0,0,0,0,0,0.9648,0.9704,0.9696,0.9806,0.9852,0.9904,0.9959,0.995,1.0007,1.0,1.0011,1.0024,1.012,1.0147,1.0098,1.0262,1.0217,1.023,1.0241,1.0256,1.0267,1.0258,1.006,0,0,0,0,0,0.9669,0.9735,0.9781,0.9873,0.9897,0.9924,0.9962,0.9966,1.0014,1.0034,1.0067,1.0114,1.0176,1.0218,1.0279,1.0389,1.0399,1.0436,1.0447,1.0456,1.0467,1.0522,1.0538,1.0368,1.0368,1.0368,0,0,0.9715,0.9754,0.9795,0.9882,0.9919,0.9984,0.9941,1.0014,1.0062,1.0045,1.0136,1.0161,1.0214,1.0316,1.0363,1.0341,1.0515,1.0466,1.0473,1.0478,1.0532,1.0548,1.0562,1.0373,1.0372,1.0371,0,0,0.9831,0.9868,0.9948,0.9984,1.0039,1.0056,1.0074,1.0127,1.0143,1.0234,1.0221,1.0278,1.0387,1.0424,1.0457,1.0582,1.0569,1.0601,1.066,1.0714,1.0728,1.0739,1.0781,1.0796,1.0612,1.0612,1.0612,0,0.988,0.998,0.999,1.0062,1.0099,1.0086,1.0164,1.0199,1.0271,1.0296,1.0271,1.0405,1.044,1.0548,1.0577,1.0606,1.0625,1.0595,1.0725,1.0737,1.0748,1.0787,1.0803,1.0615,1.0615,1.0614,1.0614,0,1.0036,1.0105,1.0163,1.023,1.0274,1.035,1.0369,1.0412,1.0411,1.0429,1.052,1.0561,1.0627,1.0653,1.0654,1.076,1.0744,1.0723,1.0677,1.0768,1.0804,1.082,1.062,1.0619,1.0618,1.0617,0,0,1.0183,1.0252,1.0273,1.0301,1.0359,1.0412,1.0485,1.0549,1.0584,1.0633,1.0693,1.0783,1.0761,1.0799,1.0803,1.0851,1.0942,1.0822,1.0824,1.084,1.1057,1.1071,1.1089,1.0934,1.0937,1.0939,1.1051,0,1.0302,1.0431,1.0439,1.0555,1.0617,1.0603,1.0666,1.0707,1.0725,1.0779,1.0799,1.0861,1.083,1.0852,1.0898,1.0921,1.0985,1.0914,1.0987,1.099,1.0972,1.1109,1.1125,1.1229,1.1066,1.1068,1.107,0,1.0459,1.051,1.0632,1.0676,1.0702,1.0759,1.0816,1.0869,1.0913,1.0923,1.0962,1.0959,1.1031,1.0984,1.1081,1.1032,1.1063,1.1078,1.1082,1.1088,1.1034,1.1115,1.1263,1.1277,1.1094,1.1092,1.109,0,1.0548,1.0649,1.0733,1.0759,1.0814,1.0853,1.0878,1.092,1.0956,1.1006,1.1029,1.1086,1.1117,1.1161,1.1172,1.1137,1.1268,1.1223,1.1276,1.1275,1.1303,1.1301,1.1454,1.1327,1.1326,1.1326,1.1326,0,1.0679,1.0753,1.0774,1.0826,1.0907,1.0915,1.0995,1.1017,1.1054,1.1108,1.11,1.115,1.1163,1.1215,1.1224,1.1301,1.1316,1.1324,1.1325,1.1324,1.1322,1.1342,1.1335,1.133,1.1329,1.1329,1.1328,0,1.0794,1.0811,1.0901,1.0945,1.0957,1.1015,1.1052,1.11,1.1116,1.1184,1.1201,1.1226,1.1286,1.1302,1.1375,1.1381,1.1471,1.1467,1.1455,1.1454,1.1505,1.1499,1.1676,1.1698,1.1558,1.1559,1.156,0,1.0875,1.0931,1.098,1.1015,1.1041,1.1099,1.1135,1.1144,1.1181,1.1234,1.1275,1.1335,1.1383,1.148,1.1504,1.1558,1.1553,1.1611,1.1562,1.1557,1.155,1.1546,1.1549,1.162,1.1622,1.1623,1.1624,0,1.1016,1.102,1.1073,1.1128,1.1171,1.1214,1.1256,1.1285,1.1299,1.1342,1.1403,1.144,1.1513,1.1571,1.1625,1.1648,1.1638,1.1639,1.1654,1.1652,1.1642,1.1644,1.1478,1.1635,1.1634,1.1633,1.1633,1.1632,1.1114,1.1162,1.1202,1.126,1.1291,1.1329,1.1375,1.1396,1.1447,1.1507,1.1509,1.1575,1.1614,1.1685,1.1711,1.1761,1.1744,1.1766,1.1771,1.1776,1.1778,1.1635,1.1772,1.1772,1.1771,1.1771,1.1771,0,1.1252,1.1276,1.1329,1.1386,1.143,1.1416,1.146,1.1498,1.1556,1.1593,1.1639,1.1708,1.1763,1.1789,1.1843,1.1878,1.1874,1.1891,1.1888,1.1892,1.1793,1.1773,1.1893,1.1893,1.1893,1.1893,1.1893,1.1893,1.1328,1.1407,1.1415,1.1508,1.1531,1.1595,1.1621,1.1655,1.1684,1.1761,1.1806,1.1823,1.1855,1.191,1.1959,1.1965,1.1984,1.2003,1.2006,1.1913,1.19,1.1888,1.187,1.2008,1.2008,1.2101,1.2102,1.2103]}]]